{"data":{"norad_id":57843,"intl_designator":"2023-141D","name":"STARLINK-30423","alt_names":[],"object_type":"PAYLOAD","status":"ACTIVE","operator":null,"country":"US","launch_date":"2023-09-12","launch_site_code":"AFWTR","launch_vehicle":null,"mission":null,"orbit_class":"UNKNOWN","rcs_meters":null,"size_class":null,"mass_kg":null,"dimensions":null,"purposes":["comms"],"wikipedia_slug":null,"has_3d_model":false,"image_url":null,"decayed_at":null,"tle_current":{"epoch":"2026-09-20T21:35:33.183168Z","epoch_age_seconds":100115,"freshness":"FRESH","line1":"1 57843U 23141D   26263.89968962  .00000065  00000+0  13844-4 0  9998","line2":"2 57843  53.1585  95.8980 0001199  90.3303 269.7836 15.31704728170235","mean_motion":15.31704728,"eccentricity":0.0001199,"inclination_deg":53.1585,"raan_deg":95.898,"arg_perigee_deg":90.3303,"mean_anomaly_deg":269.7836,"bstar":1.3844e-5,"rev_number":17023,"period_min":94.012897765241,"perigee_km":469.90472267806,"apogee_km":471.5470800018,"semimajor_km":6848.8629013399,"source":"CELESTRAK","updated_at":"2026-09-21T09:00:33.711907Z"}}}